FW2527 Weather Reports


Display with metric or nautical units.
time (UTC)temp
F
wind
direction
speed
MPH
gust
MPH
rain 1hr
in
rain 24hr
in
rain mn
in
humidity
%
barometer
mb
20260506013511 48 0.0 0.0 0.02 0.26 0.03 92 1007.4
20260506013031 48 0.0 0.0 0.02 0.26 0.03 92 1007.5
20260506012520 48 0.0 0.0 0.02 0.26 0.03 92 1007.4
20260506012007 48 0.0 0.0 0.02 0.25 0.02 92 1007.4
20260506011530 48 0.0 0.0 0.02 0.25 0.02 92 1007.5
20260506011016 48 0.0 0.0 0.02 0.25 0.02 92 1007.5
20260506010505 48 0.0 0.0 0.02 0.25 0.02 92 1007.6
20260506010035 48 0.0 0.0 0.01 0.32 0.02 92 1007.6
20260506005523 48 0.0 0.0 0.01 0.32 0.02 92 1007.6
20260506005012 48 0.0 0.0 0.01 0.32 0.02 92 1007.6
20260506004540 48 0.0 0.0 0.01 0.32 0.02 91 1007.7
20260506004023 48 0.0 0.0 0.02 0.32 0.02 91 1007.7
20260506003508 48 0.0 0.0 0.02 0.32 0.02 91 1007.7
20260506003039 48 0.0 0.0 0.02 0.32 0.02 91 1007.7
20260506002527 48 0.0 0.0 0.02 0.32 0.02 91 1007.6
20260506002015 48 0.0 0.0 0.01 0.31 0.01 91 1007.7
20260506001545 48 0.0 0.0 0.01 0.31 0.01 91 1007.8
20260506001025 48 0.0 0.0 0.01 0.31 0.01 90 1007.8
20260506000513 48 0.0 0.0 0.01 0.31 0.01 90 1007.9
20260506000052 48 0.0 0.0 0.01 0.39 0.01 90 1007.9
20260505235522 48 0.0 0.0 0.01 0.39 0.01 90 1008.0
20260505235011 48 0.0 0.0 0.01 0.39 0.01 90 1008.0
20260505234536 48 0.0 0.0 0.01 0.39 0.01 89 1008.1
20260505234022 48 0.0 0.0 0.00 0.38 0.00 89 1008.1
20260505233507 48 0.0 0.0 0.00 0.38 0.00 89 1008.1
20260505233028 48 0.0 0.0 0.00 0.38 0.00 89 1008.2
20260505232516 48 0.0 0.0 0.00 0.38 0.00 89 1008.2
20260505232004 48 0.0 0.0 0.00 0.38 0.00 89 1008.2
20260505231529 49 0.0 0.0 0.00 0.38 0.00 89 1008.3
20260505231013 49 0.0 0.0 0.00 0.38 0.00 88 1008.4
20260505230502 49 0.0 0.0 0.00 0.38 0.00 88 1008.3
20260505230038 49 0.0 0.0 0.00 0.63 0.00 88 1008.3
20260505225511 49 0.0 0.0 0.00 0.63 0.00 88 1008.3
20260505225102 49 0.0 0.0 0.00 0.63 0.00 88 1008.3
20260505224532 49 0.0 0.0 0.00 0.63 0.00 88 1008.3
20260505224018 49 0.0 0.0 0.00 0.63 0.00 88 1008.4
20260505223506 49 0.0 0.0 0.00 0.63 0.00 88 1008.5
20260505223034 49 0.0 0.0 0.00 0.63 0.00 88 1008.5
20260505222518 49 0.0 0.0 0.00 0.63 0.00 88 1008.4
20260505222005 49 0.0 0.0 0.00 0.63 0.00 88 1008.5
20260505221541 49 0.0 0.0 0.00 0.63 0.00 87 1008.5
20260505221022 49 0.0 0.0 0.00 0.63 0.00 88 1008.5
20260505220510 50 0.0 0.0 0.00 0.63 0.00 88 1008.5
20260505220031 50 0.0 0.0 0.00 0.66 0.63 88 1008.6
20260505215519 50 0.0 0.0 0.00 0.66 0.63 87 1008.5
20260505215007 50 0.0 0.0 0.00 0.66 0.63 87 1008.7
20260505214528 50 0.0 0.0 0.00 0.66 0.63 87 1008.6
20260505214017 50 0.0 0.0 0.00 0.66 0.63 87 1008.6
20260505213504 50 0.0 0.0 0.00 0.66 0.63 87 1008.6
20260505213028 50 0.0 0.0 0.00 0.66 0.63 87 1008.7
20260505212513 50 0.0 0.0 0.00 0.66 0.63 87 1008.8
20260505212002 50 0.0 0.0 0.00 0.66 0.63 87 1008.8
20260505211530 50 0.0 0.0 0.00 0.66 0.63 87 1008.7
20260505211011 50 0.0 0.0 0.00 0.66 0.63 87 1008.8
20260505210601 50 0.0 0.0 0.00 0.66 0.63 87 1008.8
20260505210021 50 0.0 0.0 0.00 0.67 0.63 87 1008.8
20260505205513 50 0.0 0.0 0.00 0.67 0.63 87 1008.8
20260505205100 50 0.0 0.0 0.00 0.67 0.63 87 1008.9
20260505204518 50 0.0 0.0 0.00 0.67 0.63 87 1008.9
20260505204006 50 0.0 0.0 0.00 0.67 0.63 87 1008.8
20260505203557 50 0.0 0.0 0.00 0.67 0.63 87 1008.8
20260505203021 50 0.0 0.0 0.00 0.67 0.63 87 1008.8
20260505202509 50 0.0 0.0 0.00 0.67 0.63 87 1008.8
20260505202100 50 0.0 0.0 0.00 0.67 0.63 87 1008.8
20260505201518 50 0.0 0.0 0.00 0.67 0.63 87 1008.9
20260505201007 50 0.0 0.0 0.00 0.67 0.63 87 1008.8
20260505200557 50 0.0 0.0 0.00 0.67 0.63 87 1008.8
20260505200016 50 0.0 0.0 0.00 0.67 0.63 87 1008.9
20260505195504 50 0.0 0.0 0.00 0.67 0.63 87 1008.8
20260505195055 51 0.0 0.0 0.00 0.67 0.63 88 1008.9
20260505194513 51 0.0 0.0 0.00 0.67 0.63 88 1008.8
20260505194002 51 0.0 0.0 0.00 0.67 0.63 88 1008.9
20260505193552 51 0.0 0.0 0.00 0.67 0.63 88 1008.8
20260505193011 51 0.0 0.0 0.00 0.67 0.63 88 1008.8
20260505192602 51 0.0 0.0 0.00 0.67 0.63 88 1008.8
20260505192049 51 0.0 0.0 0.00 0.67 0.63 88 1008.7
20260505191509 51 0.0 0.0 0.00 0.67 0.63 88 1008.7
20260505191058 51 0.0 0.0 0.00 0.67 0.63 88 1008.7
20260505190546 51 0.0 0.0 0.00 0.67 0.63 88 1008.8
20260505190003 51 0.0 0.0 0.00 0.67 0.63 88 1008.8
20260505185550 51 0.0 0.0 0.00 0.67 0.63 88 1008.8
20260505185038 51 0.0 0.0 0.00 0.67 0.63 88 1008.7
20260505184507 51 0.0 0.0 0.00 0.67 0.63 88 1008.6
20260505184058 51 0.0 0.0 0.00 0.67 0.63 88 1008.8
20260505183546 51 0.0 0.0 0.00 0.67 0.63 88 1008.7
20260505183006 51 0.0 0.0 0.00 0.67 0.63 88 1008.5
20260505182555 51 0.0 0.0 0.00 0.67 0.63 88 1008.5
20260505182043 51 0.0 0.0 0.00 0.67 0.63 88 1008.4
20260505181502 51 0.0 0.0 0.00 0.67 0.63 88 1008.7
20260505181055 51 0.0 0.0 0.00 0.67 0.63 88 1008.8
20260505180540 51 0.0 0.0 0.00 0.67 0.63 88 1008.8
20260505180009 52 0.0 0.0 0.00 0.69 0.63 88 1008.8
20260505175559 52 0.0 0.0 0.00 0.69 0.63 88 1008.8
20260505175047 52 0.0 0.0 0.00 0.69 0.63 88 1008.8
20260505174506 52 0.0 0.0 0.00 0.69 0.63 88 1008.8
20260505174057 52 0.0 0.0 0.00 0.69 0.63 88 1008.7
20260505173544 52 0.0 0.0 0.00 0.69 0.63 88 1008.8
20260505173014 52 0.0 0.0 0.00 0.69 0.63 88 1008.7
20260505172501 52 0.0 0.0 0.00 0.69 0.63 88 1008.7
20260505172051 52 0.0 0.0 0.00 0.69 0.63 88 1008.9
20260505171516 52 0.0 0.0 0.00 0.69 0.63 88 1009.0
20260505171100 52 0.0 0.0 0.00 0.69 0.63 88 1009.0
20260505170549 52 0.0 0.0 0.00 0.69 0.63 88 1009.1
20260505170007 52 0.0 0.0 0.00 0.70 0.63 88 1009.1
20260505165557 52 0.0 0.0 0.00 0.70 0.63 88 1009.1
20260505165047 52 0.0 0.0 0.00 0.70 0.63 88 1009.0
20260505164505 52 0.0 0.0 0.00 0.70 0.63 88 1009.1
20260505164056 52 0.0 0.0 0.00 0.70 0.63 88 1009.1
20260505163546 52 0.0 0.0 0.00 0.70 0.63 88 1009.2
20260505163013 52 0.0 0.0 0.00 0.70 0.63 88 1009.2
20260505162601 52 0.0 0.0 0.00 0.70 0.63 88 1009.2
20260505162049 52 0.0 0.0 0.00 0.70 0.63 88 1009.2
20260505161508 52 0.0 0.0 0.00 0.70 0.63 88 1009.2
20260505161059 52 0.0 0.0 0.00 0.70 0.63 87 1009.2
20260505160546 52 0.0 0.0 0.00 0.70 0.63 87 1009.3
20260505153001 52 0.0 0.0 0.00 0.70 0.63 87 1009.3
20260505152550 52 0.0 0.0 0.00 0.70 0.63 88 1009.2
20260505152038 52 0.0 0.0 0.00 0.70 0.63 88 1009.4
20260505151507 52 0.0 0.0 0.00 0.70 0.63 88 1009.3
20260505151101 52 0.0 0.0 0.00 0.70 0.63 88 1009.3
20260505150546 52 0.0 0.0 0.00 0.70 0.63 88 1009.4
20260505140546 52 0.0 0.0 0.00 0.72 0.63 88 1009.7
20260505124514 51 0.0 0.0 0.00 0.72 0.63 91 1010.3
20260505124002 51 0.0 0.0 0.00 0.72 0.63 91 1010.4
20260505123549 51 0.0 0.0 0.00 0.72 0.63 91 1010.5
20260505123111 51 0.0 0.0 0.00 0.72 0.63 92 1010.4
20260505122550 51 0.0 0.0 0.00 0.72 0.63 92 1010.4
20260505122038 51 0.0 0.0 0.00 0.72 0.63 92 1010.5
20260505121601 51 0.0 0.0 0.00 0.72 0.63 92 1010.5
20260505121050 51 0.0 0.0 0.00 0.72 0.63 92 1010.5
20260505120539 51 0.0 0.0 0.00 0.72 0.63 93 1010.6
20260505120121 51 0.0 0.0 0.00 0.72 0.63 93 1010.6
20260505115546 51 0.0 0.0 0.00 0.72 0.63 93 1010.8
20260505115034 50 0.0 0.0 0.00 0.72 0.63 93 1010.7
20260505114557 50 0.0 0.0 0.00 0.72 0.63 93 1010.8
20260505114044 50 0.0 0.0 0.00 0.72 0.63 93 1011.0
20260505113531 50 0.0 0.0 0.00 0.72 0.63 93 1010.8
20260505113055 50 0.0 0.0 0.00 0.72 0.63 93 1010.8
20260505112542 50 0.0 0.0 0.00 0.72 0.63 93 1010.8
20260505112031 50 0.0 0.0 0.00 0.72 0.63 94 1010.9
20260505111552 50 0.0 0.0 0.00 0.72 0.63 94 1010.8
20260505111040 50 0.0 0.0 0.00 0.72 0.63 93 1010.8
20260505110528 49 0.0 0.0 0.00 0.72 0.63 94 1010.9
20260505110108 49 0.0 0.0 0.00 0.72 0.63 94 1010.9
20260505102029 49 0.0 0.0 0.00 0.72 0.63 94 1011.2
20260505101548 48 0.0 0.0 0.00 0.72 0.63 94 1011.2
20260505101036 48 0.0 0.0 0.00 0.72 0.63 94 1011.3
20260505100524 48 0.0 0.0 0.00 0.72 0.63 94 1011.4
20260505100046 48 0.0 0.0 0.00 0.72 0.63 94 1011.4
20260505095533 48 0.0 0.0 0.00 0.72 0.63 94 1011.5
20260505095021 48 0.0 0.0 0.00 0.72 0.63 94 1011.5
20260505094544 48 0.0 0.0 0.00 0.72 0.63 94 1011.4
20260505094032 48 0.0 0.0 0.00 0.72 0.63 94 1011.5
20260505093520 48 0.0 0.0 0.00 0.72 0.63 94 1011.4
20260505093042 48 0.0 0.0 0.00 0.72 0.63 94 1011.4
20260505092530 47 0.0 0.0 0.00 0.72 0.63 94 1011.4
20260505092019 48 0.0 0.0 0.00 0.72 0.63 94 1011.2
20260505091551 47 0.0 0.0 0.00 0.72 0.63 94 1011.3
20260505091027 48 0.0 0.0 0.00 0.72 0.63 94 1011.3
20260505090515 47 0.0 0.0 0.00 0.72 0.63 94 1011.4
20260505090037 47 0.0 0.0 0.00 0.72 0.63 94 1011.5
20260505085524 47 0.0 0.0 0.18 0.72 0.63 94 1011.4
20260505085014 47 0.0 0.0 0.18 0.72 0.63 94 1011.5
20260505084544 47 0.0 0.0 0.18 0.72 0.63 94 1011.4
20260505084131 47 0.0 0.0 0.18 0.72 0.63 94 1011.4
20260505083540 47 0.0 0.0 0.18 0.72 0.63 94 1011.3
20260505083005 47 0.0 0.0 0.18 0.72 0.63 94 1011.4
20260505082601 47 0.0 0.0 0.18 0.72 0.63 94 1011.2
20260505082044 47 0.0 0.0 0.18 0.72 0.63 94 1011.2
20260505081504 47 0.0 0.0 0.18 0.72 0.63 94 1011.2
20260505081056 47 0.0 0.0 0.18 0.72 0.63 94 1011.1
20260505080537 47 0.0 0.0 0.18 0.72 0.63 94 1011.3
20260505080110 47 0.0 0.0 0.18 0.72 0.63 94 1011.2
20260505075551 47 0.0 0.0 0.00 0.54 0.45 94 1011.2
20260505075036 47 0.0 0.0 0.00 0.54 0.45 94 1011.2
20260505074559 47 0.0 0.0 0.00 0.54 0.45 94 1011.2
20260505074049 47 0.0 0.0 0.01 0.54 0.45 94 1011.3
20260505073537 47 0.0 0.0 0.01 0.54 0.45 94 1011.2
20260505073103 47 0.0 0.0 0.01 0.54 0.45 94 1011.3
20260505072551 47 0.0 0.0 0.01 0.54 0.45 94 1011.3
20260505072037 47 0.0 0.0 0.01 0.54 0.45 94 1011.4
20260505071558 47 0.0 0.0 0.01 0.54 0.45 94 1011.3
20260505071046 47 0.0 0.0 0.01 0.54 0.45 94 1011.4
20260505070534 47 0.0 0.0 0.01 0.54 0.45 94 1011.4
20260505070101 47 0.0 0.0 0.01 0.54 0.45 94 1011.3
20260505065544 47 0.0 0.0 0.01 0.54 0.45 94 1011.4
20260505065032 47 0.0 0.0 0.01 0.54 0.45 94 1011.4
20260505064639 47 0.0 0.0 0.01 0.54 0.45 94 1011.4
20260505064043 47 0.0 0.0 0.00 0.53 0.44 94 1011.3
20260505063531 47 0.0 0.0 0.00 0.53 0.44 94 1011.4
20260505063053 47 0.0 0.0 0.00 0.53 0.44 94 1011.5
20260505062541 47 0.0 0.0 0.00 0.53 0.44 94 1011.5
20260505062031 47 0.0 0.0 0.00 0.53 0.44 94 1011.6
20260505061551 47 0.0 0.0 0.00 0.53 0.44 94 1011.6
20260505061041 47 0.0 0.0 0.00 0.53 0.44 94 1011.4
20260505060527 47 0.0 0.0 0.00 0.53 0.44 94 1011.5
20260505060039 47 0.0 0.0 0.00 0.53 0.44 94 1011.5
20260505055527 47 0.0 0.0 0.00 0.53 0.44 94 1011.5
20260505055015 48 0.0 0.0 0.00 0.53 0.44 94 1011.4
20260505054545 48 0.0 0.0 0.00 0.53 0.44 94 1011.5
20260505054022 48 0.0 0.0 0.00 0.53 0.44 94 1011.3
20260505053513 48 0.0 0.0 0.00 0.53 0.44 94 1011.3
20260505053034 48 0.0 0.0 0.00 0.53 0.44 94 1011.3
20260505052520 48 0.0 0.0 0.00 0.53 0.44 94 1011.1
20260505052010 48 0.0 0.0 0.01 0.53 0.44 94 1011.2
20260505051530 48 0.0 0.0 0.01 0.53 0.44 94 1011.1
20260505051018 48 0.0 0.0 0.01 0.53 0.44 94 1011.1
20260505050508 48 0.0 0.0 0.01 0.53 0.44 94 1011.1
20260505041524 48 0.0 0.0 0.00 0.52 0.43 94 1011.1
20260505041012 48 0.0 0.0 0.00 0.52 0.43 94 1011.1
20260505040501 49 0.0 0.0 0.00 0.52 0.43 94 1011.1
20260505040023 49 0.0 0.0 0.00 0.52 0.43 94 1011.2
20260505035510 49 0.0 0.0 0.01 0.52 0.43 94 1011.2
20260505035101 49 0.0 0.0 0.01 0.52 0.43 94 1011.1
20260505034526 49 0.0 0.0 0.01 0.52 0.43 94 1011.2
20260505034101 49 0.0 0.0 0.01 0.52 0.43 94 1011.2
20260505033549 49 0.0 0.0 0.01 0.52 0.43 94 1011.2
20260505033010 49 0.0 0.0 0.01 0.52 0.43 93 1011.2
20260505032558 49 0.0 0.0 0.01 0.52 0.43 93 1011.2
20260505032046 49 0.0 0.0 0.01 0.52 0.43 94 1011.3
20260505031505 49 0.0 0.0 0.02 0.52 0.43 94 1011.4
20260505031056 49 0.0 0.0 0.02 0.52 0.43 93 1011.4
20260505030550 50 0.0 0.0 0.02 0.52 0.43 93 1011.3
20260505030005 50 0.0 0.0 0.02 0.52 0.43 93 1011.5
20260505025552 50 0.0 0.0 0.02 0.51 0.43 94 1011.6
20260505025039 50 0.0 0.0 0.02 0.51 0.43 94 1011.6
20260505024613 50 0.0 0.0 0.02 0.51 0.43 94 1011.7
20260505024049 50 0.0 0.0 0.02 0.51 0.43 94 1011.6
20260505023537 50 0.0 0.0 0.02 0.51 0.43 93 1011.3
20260505023005 50 0.0 0.0 0.02 0.51 0.43 93 1011.3
20260505022558 50 0.0 0.0 0.02 0.51 0.43 93 1011.4
20260505022043 50 0.0 0.0 0.02 0.51 0.43 93 1011.4
20260505021502 50 0.0 0.0 0.02 0.50 0.42 93 1011.6
20260505021052 50 0.0 0.0 0.02 0.50 0.42 93 1011.5
20260505020540 50 0.0 0.0 0.02 0.50 0.42 93 1011.4
20260505020109 51 0.0 0.0 0.01 0.50 0.41 93 1011.5
20260505015550 51 0.0 0.0 0.01 0.50 0.41 93 1011.5
20260505015038 51 0.0 0.0 0.02 0.50 0.41 93 1011.5
20260505014511 51 0.0 0.0 0.02 0.50 0.41 93 1011.5
20260505014057 51 0.0 0.0 0.02 0.50 0.41 93 1011.5